Hourly Weather Allassac

Today, 14 April, Wednesday

Time Temperature Precipitation Wind Pressure Humidity
00:00 +3°C° 0 mm 2 mps 742 mmHg 65%
01:00 +2°C° 0 mm 2 mps 741 mmHg 65%
02:00 +2°C° 0 mm 2 mps 741 mmHg 65%
03:00 +2°C° 0 mm 2 mps 741 mmHg 66%
04:00 +2°C° 0 mm 2 mps 741 mmHg 63%
05:00 +2°C° 0 mm 2 mps 741 mmHg 61%
06:00 +2°C° 0 mm 2 mps 741 mmHg 59%
07:00 +5°C° 0 mm 2 mps 741 mmHg 51%
08:00 +7°C° 0 mm 3 mps 741 mmHg 43%
09:00 +9°C° 0 mm 3 mps 741 mmHg 35%
10:00 +10°C° 0 mm 3 mps 741 mmHg 31%
11:00 +12°C° 0 mm 3 mps 740 mmHg 27%
12:00 +13°C° 0 mm 3 mps 740 mmHg 23%
13:00 +13°C° 0 mm 3 mps 740 mmHg 24%
14:00 +14°C° 0 mm 3 mps 740 mmHg 24%
15:00 +14°C° 0 mm 3 mps 739 mmHg 24%
16:00 +12°C° 0 mm 3 mps 740 mmHg 30%
17:00 +11°C° 0 mm 3 mps 740 mmHg 36%
18:00 +9°C° 0 mm 3 mps 740 mmHg 41%
19:00 +8°C° 0 mm 3 mps 740 mmHg 47%
20:00 +5°C° 0 mm 3 mps 741 mmHg 52%
21:00 +4°C° 0 mm 3 mps 741 mmHg 58%
22:00 +3°C° 0 mm 3 mps 741 mmHg 60%
23:00 +3°C° 0 mm 3 mps 741 mmHg 62%

Tomorrow, 15 April, Thursday

Time Temperature Precipitation Wind Pressure Humidity
00:00 +2°C° 0 mm 3 mps 741 mmHg 64%
01:00 +2°C° 0 mm 3 mps 741 mmHg 67%
02:00 +2°C° 0 mm 2 mps 741 mmHg 70%
03:00 +1°C° 0 mm 2 mps 741 mmHg 72%
04:00 +1°C° 0 mm 2 mps 741 mmHg 72%
05:00 +1°C° 0 mm 2 mps 741 mmHg 72%
06:00 +1°C° 0 mm 2 mps 741 mmHg 72%
07:00 +4°C° 0 mm 2 mps 741 mmHg 60%
08:00 +5°C° 0 mm 3 mps 741 mmHg 49%
09:00 +9°C° 0 mm 3 mps 741 mmHg 37%
10:00 +10°C° 0 mm 3 mps 740 mmHg 33%
11:00 +12°C° 0 mm 3 mps 740 mmHg 29%
12:00 +13°C° 0 mm 3 mps 739 mmHg 25%
13:00 +13°C° 0 mm 3 mps 739 mmHg 26%
14:00 +13°C° 0 mm 3 mps 739 mmHg 26%
15:00 +13°C° 0 mm 3 mps 738 mmHg 26%
16:00 +12°C° 0 mm 3 mps 738 mmHg 32%
17:00 +11°C° 0 mm 3 mps 738 mmHg 37%
18:00 +9°C° 0 mm 3 mps 738 mmHg 43%
19:00 +8°C° 0 mm 3 mps 739 mmHg 48%
20:00 +7°C° 0 mm 3 mps 739 mmHg 54%
21:00 +4°C° 0 mm 3 mps 739 mmHg 60%
22:00 +3°C° 0 mm 3 mps 739 mmHg 64%
23:00 +4°C° 0 mm 2 mps 739 mmHg 68%

Day after tomorrow, 16 April, Friday

Time Temperature Precipitation Wind Pressure Humidity
00:00 +3°C° 0 mm 2 mps 739 mmHg 72%
01:00 +2°C° 0 mm 2 mps 738 mmHg 74%
02:00 +2°C° 0 mm 2 mps 738 mmHg 76%
03:00 +1°C° 0 mm 2 mps 738 mmHg 79%
04:00 +1°C° 0 mm 2 mps 738 mmHg 77%
05:00 +1°C° 0 mm 2 mps 739 mmHg 76%
06:00 +1°C° 0 mm 2 mps 739 mmHg 74%
07:00 +3°C° 0 mm 3 mps 739 mmHg 61%
08:00 +5°C° 0 mm 3 mps 739 mmHg 49%
09:00 +8°C° 0 mm 4 mps 739 mmHg 36%
10:00 +10°C° 0 mm 4 mps 739 mmHg 33%
11:00 +11°C° 0 mm 4 mps 738 mmHg 29%
12:00 +12°C° 0 mm 4 mps 738 mmHg 26%
13:00 +11°C° 0 mm 4 mps 738 mmHg 28%
14:00 +11°C° 0 mm 4 mps 738 mmHg 30%
15:00 +11°C° 0 mm 4 mps 738 mmHg 32%
16:00 +10°C° 0 mm 4 mps 738 mmHg 37%
17:00 +8°C° 0 mm 4 mps 738 mmHg 43%
18:00 +8°C° 0 mm 3 mps 738 mmHg 48%
19:00 +7°C° 0 mm 3 mps 739 mmHg 56%
20:00 +4°C° 0 mm 3 mps 739 mmHg 63%
21:00 +4°C° 0 mm 2 mps 740 mmHg 71%
22:00 +3°C° 0 mm 2 mps 740 mmHg 75%
23:00 +2°C° 0 mm 2 mps 739 mmHg 79%

17 April, Saturday

Time Temperature Precipitation Wind Pressure Humidity
00:00 +2°C° 0 mm 2 mps 739 mmHg 82%
01:00 +1°C° 0 mm 2 mps 739 mmHg 84%
02:00 +1°C° 0 mm 2 mps 739 mmHg 86%
03:00 +1°C° 0 mm 1 mps 739 mmHg 88%
04:00 +1°C° 0 mm 1 mps 739 mmHg 86%
05:00 +1°C° 0 mm 2 mps 739 mmHg 84%
06:00 +1°C° 0 mm 2 mps 739 mmHg 83%
07:00 +3°C° 0 mm 2 mps 739 mmHg 71%
08:00 +5°C° 0 mm 3 mps 739 mmHg 60%
09:00 +9°C° 0 mm 3 mps 739 mmHg 48%
10:00 +10°C° 0 mm 3 mps 739 mmHg 46%
11:00 +11°C° 0 mm 4 mps 739 mmHg 44%
12:00 +13°C° 0 mm 4 mps 738 mmHg 42%
13:00 +12°C° 0 mm 4 mps 738 mmHg 45%
14:00 +12°C° 0 mm 4 mps 739 mmHg 48%
15:00 +11°C° 0 mm 4 mps 739 mmHg 51%
16:00 +10°C° 0 mm 3 mps 739 mmHg 54%
17:00 +10°C° 0 mm 3 mps 739 mmHg 57%
18:00 +9°C° 0 mm 2 mps 739 mmHg 60%
19:00 +8°C° 0 mm 2 mps 740 mmHg 64%
20:00 +7°C° 0 mm 2 mps 740 mmHg 67%
21:00 +8°C° 0 mm 1 mps 740 mmHg 70%
22:00 +7°C° 0 mm 1 mps 740 mmHg 74%
23:00 +6°C° 0 mm 1 mps 740 mmHg 77%

18 April, Sunday

Time Temperature Precipitation Wind Pressure Humidity
00:00 +5°C° 0 mm 1 mps 740 mmHg 81%
01:00 +5°C° 0 mm 1 mps 740 mmHg 81%
02:00 +5°C° 0 mm 1 mps 740 mmHg 81%
03:00 +5°C° 0 mm 1 mps 740 mmHg 81%
04:00 +6°C° 0 mm 1 mps 740 mmHg 79%
05:00 +6°C° 0 mm 1 mps 740 mmHg 78%
06:00 +7°C° 0 mm 1 mps 740 mmHg 77%
07:00 +8°C° 0 mm 2 mps 740 mmHg 69%
08:00 +9°C° 0 mm 2 mps 740 mmHg 60%
09:00 +11°C° 0 mm 3 mps 740 mmHg 52%
10:00 +12°C° 0 mm 3 mps 740 mmHg 49%
11:00 +13°C° 0 mm 3 mps 740 mmHg 45%
12:00 +14°C° 0 mm 3 mps 740 mmHg 41%
13:00 +14°C° 0 mm 3 mps 739 mmHg 40%
14:00 +16°C° 0 mm 3 mps 739 mmHg 38%
15:00 +17°C° 0 mm 3 mps 739 mmHg 37%
16:00 +14°C° 0 mm 3 mps 739 mmHg 43%
17:00 +13°C° 0 mm 3 mps 739 mmHg 49%
18:00 +12°C° 0 mm 3 mps 739 mmHg 55%
19:00 +10°C° 0 mm 2 mps 739 mmHg 63%
20:00 +7°C° 0 mm 2 mps 740 mmHg 71%
21:00 +6°C° 0 mm 1 mps 740 mmHg 78%
22:00 +5°C° 0 mm 1 mps 740 mmHg 81%
23:00 +5°C° 0 mm 1 mps 740 mmHg 84%

19 April, Monday

Time Temperature Precipitation Wind Pressure Humidity
00:00 +4°C° 0 mm 1 mps 740 mmHg 88%
01:00 +4°C° 0 mm 1 mps 739 mmHg 87%
02:00 +4°C° 0 mm 1 mps 739 mmHg 87%
03:00 +4°C° 0 mm 1 mps 739 mmHg 87%
04:00 +4°C° 0 mm 1 mps 739 mmHg 85%
05:00 +5°C° 0 mm 1 mps 738 mmHg 82%
06:00 +5°C° 0 mm 1 mps 738 mmHg 80%
07:00 +8°C° 0 mm 1 mps 738 mmHg 69%
08:00 +10°C° 0 mm 1 mps 738 mmHg 58%
09:00 +13°C° 0 mm 1 mps 738 mmHg 47%
10:00 +15°C° 0 mm 1 mps 737 mmHg 42%
11:00 +18°C° 0 mm 1 mps 737 mmHg 38%
12:00 +19°C° 0 mm 1 mps 736 mmHg 34%
13:00 +20°C° 0 mm 1 mps 735 mmHg 33%
14:00 +19°C° 0 mm 2 mps 735 mmHg 33%
15:00 +19°C° 0 mm 2 mps 734 mmHg 33%
16:00 +17°C° 0 mm 2 mps 734 mmHg 40%
17:00 +16°C° 0 mm 2 mps 734 mmHg 48%
18:00 +15°C° 0 mm 2 mps 734 mmHg 55%
19:00 +13°C° 0 mm 2 mps 734 mmHg 62%
20:00 +11°C° 0 mm 1 mps 734 mmHg 69%
21:00 +9°C° 0 mm 1 mps 735 mmHg 75%
22:00 +8°C° 0 mm 1 mps 735 mmHg 79%
23:00 +7°C° 0 mm 1 mps 735 mmHg 82%
Show more